Batesville, Indiana, United States (47006)
Lat: 39.30N, Lon: 85.22W
Wx Zone: INZ073
Local Info
Past Weather Observations for Today

NOTE: This archive is for the closest National Weather Service station to Batesville. Information may differ from the station used for current weather conditions.

Click here for Long-term Archive

Time Weather Temperature Dewpoint Humidity Pressure Winds Precip Visibility
13:52
Mostly Cloudy
64°F / 18°C 54°F / 12°C 68% 29.98 in
(1015 mb)
SSW 9.2 mph
(SSW 15 kph)
- 10SM
12:52
Overcast
64°F / 18°C 54°F / 12°C 68% 29.98 in
(1015 mb)
SSW 5.8 mph
(SSW 9 kph)
- 10SM
11:52
Overcast
64°F / 18°C 52°F / 11°C 64% 29.98 in
(1015 mb)
Variable 5.8 mph
(Variable 9 kph)
- 10SM
10:52
Overcast
63°F / 17°C 54°F / 12°C 73% 29.89 in
(1012 mb)
SSW 10.4 mph
(SSW 17 kph)
- 10SM
10:06
Overcast
63°F / 17°C 54°F / 12°C 73% 29.98 in
(1015 mb)
W 4.6 mph
(W 7 kph)
- 10SM
09:52
Mostly Cloudy
64°F / 18°C 55°F / 13°C 73% 29.98 in
(1015 mb)
SSW 5.8 mph
(SSW 9 kph)
- 10SM
09:04
Mostly Cloudy
63°F / 17°C 55°F / 13°C 77% 30.01 in
(1016 mb)
W 9.2 mph
(W 15 kph)
- 10SM
08:52
Overcast
61°F / 16°C 55°F / 13°C 83% 30.01 in
(1016 mb)
W 11.5 mph
(W 19 kph)
- 10SM
07:52
Overcast
61°F / 16°C 57°F / 14°C 88% 29.98 in
(1015 mb)
SW 5.8 mph
(SW 9 kph)
- 8SM
07:41
Overcast
59°F / 15°C 57°F / 14°C 94% 29.98 in
(1015 mb)
SW 5.8 mph
(SW 9 kph)
- 8SM
07:04
Overcast
59°F / 15°C 57°F / 14°C 94% 29.98 in
(1015 mb)
SSW 8.1 mph
(SSW 13 kph)
- 8SM
06:52
Overcast
59°F / 15°C 57°F / 14°C 94% 29.98 in
(1015 mb)
SSW 5.8 mph
(SSW 9 kph)
- 7SM
05:52
Overcast
59°F / 15°C 57°F / 14°C 94% 29.95 in
(1014 mb)
SSW 8.1 mph
(SSW 13 kph)
- 7SM
04:52
Overcast
57°F / 14°C 57°F / 14°C 100% 29.92 in
(1013 mb)
Calm - 8SM
04:46
Mostly Cloudy
57°F / 14°C 57°F / 14°C 100% 29.92 in
(1013 mb)
Calm - 8SM
04:16
Partly Cloudy
59°F / 15°C 57°F / 14°C 94% 29.92 in
(1013 mb)
W 10.4 mph
(W 17 kph)
- 9SM
03:52
Clear
59°F / 15°C 57°F / 14°C 94% 29.92 in
(1013 mb)
W 8.1 mph
(W 13 kph)
- 9SM
02:52
Clear
61°F / 16°C 57°F / 14°C 88% 29.92 in
(1013 mb)
W 5.8 mph
(W 9 kph)
- 10SM
01:52
Partly Cloudy
61°F / 16°C 61°F / 16°C 100% 29.92 in
(1013 mb)
SSW 3.5 mph
(SSW 6 kph)
0.00 in
(0.00 mm)
8SM
01:30
Partly Cloudy
63°F / 17°C 61°F / 16°C 94% 29.89 in
(1012 mb)
SSW 4.6 mph
(SSW 7 kph)
0.00 in
(0.00 mm)
9SM
01:08
Overcast
63°F / 17°C 61°F / 16°C 94% 29.92 in
(1013 mb)
W 8.1 mph
(W 13 kph)
0.00 in
(0.00 mm)
10SM
00:52
Overcast
63°F / 17°C 61°F / 16°C 94% 29.89 in
(1012 mb)
SSW 9.2 mph
(SSW 15 kph)
- 10SM
00:46
Mostly Cloudy
63°F / 17°C 61°F / 16°C 94% 29.89 in
(1012 mb)
NW 13.8 mph
(NW 22 kph)
- 10SM
Time Weather Temperature Dewpoint Humidity Pressure Winds Precip Visibility


Weather for websites

WeatherForYou.com, LLC is not responsible for any damages or problems caused by this service. Current weather conditions are obtained from the closest station including government and personal stations which may have varying degrees of accuracy. Weather forecasts are derived from the NOAA NDFD. Like all things, this site belongs to Jesus Christ... He just trusts us to maintain it. If you have any questions or comments email webmaster@weatherforyou.com

Copyright © 2016, WeatherForYou.com LLC. All rights reserved.